This demonstration page uses our WeatherBlox Daily Observations layout. Learn more.

Left ArrowRight Arrow

39.92423, -83.80882

Hourly Observations for June 24, 2018

Temp ( °F °C ) Dew Point ( °F °C ) Humidity (%) Winds ( mph kmh ) Pressure ( in mb ) Visibility ( mi km ) Precip ( " mm )
12:56 am 00:56 Cloudy 67 19.4 65 18.3 93 93 N N/A 29.84 1011 10 16 N/A
1:56 am 01:56 Mostly Cloudy 66 18.9 65 18.3 96 96 N N/A 29.85 1011 10 16 N/A
2:43 am 02:43 Mostly Cloudy 66 19 64 18 94 94 SSW 5 7 29.83 1010 10 16 N/A
2:56 am 02:56 Cloudy 66 18.9 64 17.8 93 93 SSW 6 9 29.85 1011 10 16 N/A
3:08 am 03:08 Cloudy 66 19 64 18 94 94 SW 7 11 29.85 1011 10 16 N/A
3:56 am 03:56 Mostly Cloudy 66 18.9 64 17.8 93 93 SW 6 9 29.85 1011 10 16 N/A
4:56 am 04:56 Mostly Clear 64 17.8 63 17.2 96 96 W 5 7 29.85 1011 10 16 N/A
5:56 am 05:56 Mostly Clear 63 17.2 62 16.7 97 97 SW 5 7 29.87 1012 7 11 N/A
6:56 am 06:56 Sunny with Mist and Fog 65 18.3 64 17.8 97 97 WSW 5 7 29.89 1012 5 8 N/A
7:56 am 07:56 Partly Cloudy 68 20 65 18.3 90 90 W 7 11 29.90 1013 10 16 N/A
8:56 am 08:56 Mostly Sunny 71 21.7 65 18.3 81 81 WNW 9 15 29.90 1012 10 16 N/A
9:29 am 09:29 Mostly Cloudy 72 22 64 18 78 78 WNW 8 13 29.88 1012 10 16 N/A
9:56 am 09:56 Partly Cloudy 73 22.8 65 18.3 76 76 undefined N/A 29.92 1013 10 16 N/A
10:56 am 10:56 Mostly Cloudy 75 23.9 66 18.9 74 74 undefined N/A 29.93 1014 10 16 N/A
11:30 am 11:30 Mostly Cloudy 77 25 66 19 69 69 W 10 17 29.91 1013 10 16 N/A
11:56 am 11:56 Mostly Cloudy 77 25 66 18.9 69 69 WNW 12 19 29.95 1014 10 16 N/A
12:56 pm 12:56 Partly Cloudy 79 26.1 66 18.9 65 65 W 10 17 29.94 1014 10 16 N/A
1:56 pm 13:56 Mostly Sunny 80 26.7 65 18.3 60 60 W 12 19 29.94 1014 10 16 N/A
2:56 pm 14:56 Partly Cloudy 81 27.2 63 17.2 54 54 W 10 17 29.95 1014 10 16 N/A
3:56 pm 15:56 Sunny 82 27.8 62 16.7 51 51 W 12 19 29.96 1015 10 16 N/A
4:56 pm 16:56 Sunny 81 27.2 62 16.7 53 53 WNW 9 15 29.96 1014 10 16 N/A
5:56 pm 17:56 Partly Cloudy 80 26.7 61 16.1 52 52 NW 7 11 29.96 1015 10 16 N/A
6:56 pm 18:56 Mostly Sunny 80 26.7 62 16.7 54 54 NW 8 13 29.96 1015 10 16 N/A
7:56 pm 19:56 Sunny 78 25.6 64 17.8 62 62 NW 5 7 29.97 1015 10 16 N/A
8:56 pm 20:56 Sunny 73 22.8 67 19.4 81 81 N N/A 29.97 1015 10 16 N/A
9:56 pm 21:56 Clear 71 21.7 68 20 90 90 N N/A 29.99 1016 10 16 N/A
10:56 pm 22:56 Mostly Clear 68 20 65 18.3 90 90 N N/A 30.02 1017 10 16 N/A
11:56 pm 23:56 Clear 66 18.9 63 17.2 90 90 NE 7 11 30.03 1017 10 16 N/A

Powered by AerisWeather